RYR78KF EBCI-LFBD

Flight info

Callsign RYR78KF
Flight time 1h 14m
Altitude 31000
Route CIV N872 LESDO DCT KOVIN DCT DUCRA UM728 RESMI UN857 DISAK DCT ARKIP DCT ARNAV DCT LMG
Aircraft B738/M-SDE2E3FGHIRWXY/LB1

Departure

Time 2026-05-08 10:52
Airport Brussels South Charleroi Airport (EBCI)

Arrival

Time 2026-05-08 12:06
Airport Bordeaux–Mérignac Airport (LFBD)
Time Latitude Longitude Altitude Speed Heading
2026-05-08 10:21 50.46925 4.47289 581 ft 0 kts 335°
2026-05-08 10:40 50.46924 4.47289 581 ft 0 kts 335°
2026-05-08 10:45 50.46920 4.47292 581 ft 2 kts 339°
2026-05-08 10:45 50.46905 4.47301 581 ft 2 kts 334°
2026-05-08 10:45 50.46892 4.47311 581 ft 2 kts 335°
2026-05-08 10:45 50.46880 4.47319 581 ft 1 kts 355°
2026-05-08 10:46 50.46871 4.47314 581 ft 1 kts 54°
2026-05-08 10:46 50.46869 4.47306 581 ft 1 kts 71°
2026-05-08 10:46 50.46867 4.47301 581 ft 0 kts 65°
2026-05-08 10:48 50.46870 4.47311 581 ft 5 kts 63°
2026-05-08 10:49 50.46901 4.47413 580 ft 16 kts 65°
2026-05-08 10:49 50.46916 4.47602 579 ft 20 kts 144°
2026-05-08 10:49 50.46831 4.47666 579 ft 0 kts 155°
2026-05-08 10:50 50.46821 4.47673 579 ft 9 kts 155°
2026-05-08 10:50 50.46715 4.47728 579 ft 17 kts 193°
2026-05-08 10:50 50.46668 4.47633 580 ft 0 kts 245°
2026-05-08 10:51 50.46564 4.47276 583 ft 77 kts 246°
2026-05-08 10:51 50.46237 4.46147 602 ft 149 kts 245°
2026-05-08 10:51 50.45751 4.44476 1009 ft 175 kts 245°
2026-05-08 10:52 50.45266 4.42754 1827 ft 181 kts 245°
2026-05-08 10:52 50.44741 4.40899 2528 ft 188 kts 244°
2026-05-08 10:52 50.44203 4.39006 3076 ft 198 kts 245°
2026-05-08 10:52 50.43622 4.36959 3560 ft 215 kts 244°
2026-05-08 10:53 50.42982 4.34748 4085 ft 233 kts 244°
2026-05-08 10:53 50.42290 4.32365 4682 ft 247 kts 244°
2026-05-08 10:53 50.41568 4.29853 5313 ft 261 kts 245°
2026-05-08 10:53 50.40986 4.27126 5966 ft 273 kts 260°
2026-05-08 10:54 50.41127 4.24151 6756 ft 280 kts 288°
2026-05-08 10:54 50.42024 4.21467 7628 ft 282 kts 303°
2026-05-08 10:54 50.43104 4.18940 8485 ft 284 kts 303°
2026-05-08 10:54 50.44189 4.16352 9343 ft 286 kts 302°
2026-05-08 10:55 50.45253 4.13737 10162 ft 289 kts 301°
2026-05-08 10:55 50.46334 4.11041 10778 ft 299 kts 301°
2026-05-08 10:55 50.47443 4.08265 11465 ft 306 kts 301°
2026-05-08 10:55 50.48585 4.05402 12224 ft 310 kts 301°
2026-05-08 10:56 50.49723 4.02553 12966 ft 314 kts 301°
2026-05-08 10:56 50.50888 3.99633 13716 ft 317 kts 301°
2026-05-08 10:56 50.52039 3.96725 14424 ft 321 kts 299°
2026-05-08 10:56 50.53016 3.93558 15126 ft 324 kts 287°
2026-05-08 10:57 50.53398 3.90064 15833 ft 325 kts 269°
2026-05-08 10:57 50.53108 3.86575 16530 ft 326 kts 254°
2026-05-08 10:57 50.51122 3.80214 17841 ft 330 kts 227°
2026-05-08 10:58 50.49368 3.77959 18500 ft 332 kts 211°
2026-05-08 10:58 50.47308 3.76337 19157 ft 334 kts 204°
2026-05-08 10:58 50.45167 3.74860 19773 ft 338 kts 204°
2026-05-08 10:58 50.43002 3.73406 20404 ft 341 kts 204°
2026-05-08 10:59 50.40813 3.71941 20990 ft 344 kts 204°
2026-05-08 10:59 50.38610 3.70462 21595 ft 347 kts 204°
2026-05-08 10:59 50.36382 3.68962 22157 ft 350 kts 204°
2026-05-08 10:59 50.34135 3.67448 22734 ft 353 kts 204°
2026-05-08 11:00 50.31880 3.65926 23294 ft 355 kts 204°
2026-05-08 11:00 50.29633 3.64410 23867 ft 357 kts 204°
2026-05-08 11:00 50.27363 3.62879 24390 ft 359 kts 204°
2026-05-08 11:00 50.25042 3.61314 24900 ft 362 kts 204°
2026-05-08 11:01 50.22739 3.59763 25414 ft 364 kts 204°
2026-05-08 11:01 50.20395 3.58186 25890 ft 367 kts 204°
2026-05-08 11:01 50.18061 3.56617 26358 ft 369 kts 204°
2026-05-08 11:01 50.15721 3.55046 26804 ft 371 kts 204°
2026-05-08 11:02 50.13340 3.53450 27275 ft 373 kts 204°
2026-05-08 11:02 50.08535 3.50233 28087 ft 379 kts 204°
2026-05-08 11:02 50.06121 3.48619 28483 ft 381 kts 204°
2026-05-08 11:03 50.03657 3.46975 28877 ft 384 kts 204°
2026-05-08 11:03 50.01215 3.45347 29263 ft 386 kts 204°
2026-05-08 11:03 49.98734 3.43694 29647 ft 388 kts 204°
2026-05-08 11:03 49.96236 3.42032 30025 ft 390 kts 204°
2026-05-08 11:04 49.93723 3.40361 30389 ft 392 kts 204°
2026-05-08 11:04 49.91190 3.38679 30728 ft 394 kts 204°
2026-05-08 11:04 49.88662 3.37002 31024 ft 397 kts 204°
2026-05-08 11:05 49.83552 3.33617 31044 ft 396 kts 204°
2026-05-08 11:05 49.78522 3.30294 31054 ft 396 kts 204°
2026-05-08 11:06 49.73469 3.26961 31046 ft 395 kts 204°
2026-05-08 11:06 49.68425 3.23643 31047 ft 397 kts 204°
2026-05-08 11:07 49.63359 3.20317 31046 ft 396 kts 204°
2026-05-08 11:07 49.58288 3.16994 31060 ft 397 kts 204°
2026-05-08 11:08 49.53212 3.13676 31044 ft 395 kts 204°
2026-05-08 11:08 49.48214 3.10124 31054 ft 396 kts 210°
2026-05-08 11:09 49.43560 3.05742 31039 ft 394 kts 214°
2026-05-08 11:09 49.39014 3.01073 31037 ft 395 kts 216°
2026-05-08 11:10 49.34457 2.96376 31053 ft 395 kts 215°
2026-05-08 11:10 49.29882 2.91708 31038 ft 395 kts 216°
2026-05-08 11:11 49.25309 2.87076 31032 ft 396 kts 216°
2026-05-08 11:11 49.20715 2.82444 31037 ft 395 kts 216°
2026-05-08 11:12 49.16140 2.77851 31044 ft 396 kts 216°
2026-05-08 11:12 49.11544 2.73244 31034 ft 395 kts 216°
2026-05-08 11:13 49.06943 2.68644 31046 ft 397 kts 217°
2026-05-08 11:13 49.02339 2.64052 31043 ft 397 kts 217°
2026-05-08 11:14 48.97716 2.59446 31038 ft 397 kts 217°
2026-05-08 11:14 48.93111 2.54874 31049 ft 399 kts 217°
2026-05-08 11:15 48.88466 2.50269 31036 ft 399 kts 218°
2026-05-08 11:15 48.83816 2.45670 31044 ft 401 kts 218°
2026-05-08 11:16 48.79141 2.41058 31052 ft 401 kts 218°
2026-05-08 11:16 48.74452 2.36438 31041 ft 400 kts 218°
2026-05-08 11:17 48.69754 2.31827 31043 ft 404 kts 218°
2026-05-08 11:17 48.65068 2.27235 31043 ft 403 kts 218°
2026-05-08 11:18 48.60326 2.22622 31036 ft 406 kts 217°
2026-05-08 11:18 48.55274 2.18805 31039 ft 414 kts 204°
2026-05-08 11:19 48.49633 2.16550 31030 ft 421 kts 198°
2026-05-08 11:19 48.43918 2.14803 31028 ft 421 kts 197°
2026-05-08 11:20 48.38145 2.13065 31026 ft 421 kts 197°
2026-05-08 11:20 48.32368 2.11285 31021 ft 425 kts 196°
2026-05-08 11:21 48.26402 2.10509 31020 ft 435 kts 183°
2026-05-08 11:21 48.20286 2.11391 31023 ft 440 kts 176°
2026-05-08 11:22 48.14218 2.12765 31018 ft 438 kts 179°
2026-05-08 11:22 48.08215 2.12674 31024 ft 430 kts 192°
2026-05-08 11:23 48.02304 2.11472 31023 ft 429 kts 194°
2026-05-08 11:23 47.96402 2.10141 31016 ft 430 kts 194°
2026-05-08 11:24 47.90475 2.08886 31019 ft 428 kts 193°
2026-05-08 11:24 47.84563 2.07699 31019 ft 430 kts 193°
2026-05-08 11:25 47.78585 2.06538 31011 ft 428 kts 193°
2026-05-08 11:25 47.72691 2.05412 31012 ft 429 kts 193°
2026-05-08 11:26 47.66772 2.04271 31001 ft 431 kts 194°
2026-05-08 11:26 47.60966 2.02371 30998 ft 420 kts 204°
2026-05-08 11:27 47.55530 1.99416 30996 ft 419 kts 208°
2026-05-08 11:27 47.50126 1.96173 30991 ft 418 kts 208°
2026-05-08 11:28 47.44767 1.92978 30998 ft 418 kts 208°
2026-05-08 11:28 47.39402 1.89833 30999 ft 418 kts 207°
2026-05-08 11:29 47.33978 1.86687 30996 ft 418 kts 207°
2026-05-08 11:29 47.28548 1.83561 31002 ft 419 kts 207°
2026-05-08 11:30 47.23149 1.80465 30994 ft 417 kts 207°
2026-05-08 11:30 47.17747 1.77382 30995 ft 418 kts 207°
2026-05-08 11:31 47.12293 1.74303 30993 ft 418 kts 207°
2026-05-08 11:31 47.06893 1.71270 30990 ft 418 kts 207°
2026-05-08 11:32 47.01432 1.68209 30991 ft 420 kts 206°
2026-05-08 11:32 46.96004 1.65172 30992 ft 417 kts 206°
2026-05-08 11:33 46.90616 1.62165 30982 ft 416 kts 206°
2026-05-08 11:33 46.85196 1.59141 30983 ft 417 kts 206°
2026-05-08 11:34 46.79811 1.56141 30977 ft 416 kts 206°
2026-05-08 11:34 46.74400 1.53135 30967 ft 417 kts 206°
2026-05-08 11:35 46.69023 1.50156 30959 ft 413 kts 206°
2026-05-08 11:35 46.63628 1.47172 30962 ft 414 kts 206°
2026-05-08 11:36 46.58257 1.44206 30952 ft 415 kts 206°
2026-05-08 11:36 46.52868 1.41240 30952 ft 413 kts 206°
2026-05-08 11:37 46.47497 1.38289 30953 ft 414 kts 206°
2026-05-08 11:37 46.42115 1.35339 30948 ft 413 kts 206°
2026-05-08 11:38 46.36764 1.32411 30955 ft 412 kts 205°
2026-05-08 11:38 46.31371 1.29466 30959 ft 412 kts 205°
2026-05-08 11:39 46.26014 1.26547 30961 ft 412 kts 205°
2026-05-08 11:39 46.20677 1.23646 30955 ft 409 kts 205°
2026-05-08 11:40 46.15355 1.20755 30958 ft 412 kts 205°
2026-05-08 11:40 46.10003 1.17856 30956 ft 410 kts 204°
2026-05-08 11:41 46.04693 1.14988 30959 ft 409 kts 204°
2026-05-08 11:41 45.99343 1.12101 30954 ft 408 kts 204°
2026-05-08 11:42 45.94049 1.09254 30962 ft 407 kts 204°
2026-05-08 11:42 45.88746 1.06407 30960 ft 407 kts 204°
2026-05-08 11:43 45.83578 1.03252 30958 ft 403 kts 214°
2026-05-08 11:43 45.79364 0.98140 30966 ft 394 kts 232°
2026-05-08 11:44 45.76045 0.91990 30936 ft 388 kts 236°
2026-05-08 11:44 45.74490 0.88895 30607 ft 382 kts 237°
2026-05-08 11:44 45.72947 0.85795 29992 ft 382 kts 237°
2026-05-08 11:44 45.71410 0.82710 29472 ft 379 kts 237°
2026-05-08 11:45 45.69894 0.79685 28962 ft 377 kts 236°
2026-05-08 11:45 45.68380 0.76686 28416 ft 375 kts 236°
2026-05-08 11:45 45.66854 0.73679 27884 ft 373 kts 236°
2026-05-08 11:45 45.65337 0.70704 27383 ft 371 kts 236°
2026-05-08 11:46 45.63817 0.67731 26845 ft 370 kts 236°
2026-05-08 11:46 45.62309 0.64789 26347 ft 367 kts 235°
2026-05-08 11:46 45.60794 0.61838 25856 ft 365 kts 235°
2026-05-08 11:46 45.59300 0.58934 25305 ft 364 kts 235°
2026-05-08 11:47 45.57822 0.56061 24803 ft 362 kts 235°
2026-05-08 11:47 45.56338 0.53181 24352 ft 359 kts 235°
2026-05-08 11:47 45.54878 0.50350 23836 ft 357 kts 235°
2026-05-08 11:47 45.53400 0.47488 23315 ft 356 kts 234°
2026-05-08 11:48 45.51946 0.44675 22875 ft 352 kts 234°
2026-05-08 11:48 45.50498 0.41876 22423 ft 350 kts 234°
2026-05-08 11:48 45.49062 0.39103 21965 ft 347 kts 234°
2026-05-08 11:48 45.47637 0.36354 21531 ft 344 kts 234°
2026-05-08 11:49 45.46220 0.33624 21060 ft 342 kts 233°
2026-05-08 11:49 45.44820 0.30928 20618 ft 339 kts 233°
2026-05-08 11:49 45.43441 0.28275 20174 ft 337 kts 233°
2026-05-08 11:49 45.42047 0.25595 19723 ft 335 kts 232°
2026-05-08 11:50 45.40667 0.22946 19289 ft 332 kts 232°
2026-05-08 11:50 45.39295 0.20317 18845 ft 330 kts 232°
2026-05-08 11:50 45.37941 0.17721 18384 ft 328 kts 232°
2026-05-08 11:50 45.36585 0.15126 17912 ft 327 kts 232°
2026-05-08 11:51 45.35235 0.12541 17468 ft 325 kts 232°
2026-05-08 11:51 45.33919 0.09993 17057 ft 322 kts 233°
2026-05-08 11:51 45.32613 0.07442 16612 ft 320 kts 233°
2026-05-08 11:51 45.31309 0.04892 16215 ft 316 kts 233°
2026-05-08 11:52 45.30017 0.02367 15784 ft 314 kts 233°
2026-05-08 11:52 45.28752 -0.00101 15375 ft 312 kts 233°
2026-05-08 11:52 45.27468 -0.02599 14920 ft 311 kts 233°
2026-05-08 11:52 45.26203 -0.05056 14518 ft 308 kts 233°
2026-05-08 11:53 45.24943 -0.07502 14102 ft 306 kts 233°
2026-05-08 11:53 45.23708 -0.09898 13670 ft 305 kts 233°
2026-05-08 11:53 45.22458 -0.12320 13250 ft 303 kts 232°
2026-05-08 11:53 45.21223 -0.14710 12826 ft 302 kts 232°
2026-05-08 11:54 45.19988 -0.17100 12482 ft 297 kts 232°
2026-05-08 11:54 45.18796 -0.19406 12341 ft 286 kts 232°
2026-05-08 11:54 45.17629 -0.21663 12203 ft 276 kts 232°
2026-05-08 11:54 45.16481 -0.23728 12085 ft 264 kts 227°
2026-05-08 11:55 45.15243 -0.25610 11954 ft 254 kts 224°
2026-05-08 11:55 45.14019 -0.27338 11869 ft 242 kts 223°
2026-05-08 11:55 45.12868 -0.28952 11790 ft 229 kts 223°
2026-05-08 11:55 45.11767 -0.30516 11640 ft 221 kts 223°
2026-05-08 11:56 45.10692 -0.32057 11361 ft 219 kts 223°
2026-05-08 11:56 45.09647 -0.33592 11061 ft 218 kts 227°
2026-05-08 11:56 45.08734 -0.35320 10750 ft 219 kts 234°
2026-05-08 11:56 45.07924 -0.37131 10440 ft 218 kts 235°
2026-05-08 11:57 45.07120 -0.38942 10135 ft 217 kts 234°
2026-05-08 11:57 45.06305 -0.40736 9832 ft 216 kts 234°
2026-05-08 11:57 45.05487 -0.42508 9510 ft 217 kts 234°
2026-05-08 11:57 45.04684 -0.44248 9347 ft 208 kts 233°
2026-05-08 11:58 45.03898 -0.45953 9084 ft 205 kts 233°
2026-05-08 11:58 45.03143 -0.47586 8926 ft 195 kts 233°
2026-05-08 11:58 45.02405 -0.49179 8628 ft 194 kts 233°
2026-05-08 11:59 45.00939 -0.52343 8012 ft 194 kts 233°
2026-05-08 11:59 45.00203 -0.53934 7722 ft 192 kts 233°
2026-05-08 11:59 44.99477 -0.55503 7401 ft 191 kts 233°
2026-05-08 11:59 44.98751 -0.57069 7071 ft 191 kts 233°
2026-05-08 12:00 44.98022 -0.58637 6760 ft 191 kts 233°
2026-05-08 12:00 44.97297 -0.60197 6477 ft 187 kts 233°
2026-05-08 12:00 44.96606 -0.61693 6339 ft 173 kts 233°
2026-05-08 12:00 44.95963 -0.63082 6060 ft 169 kts 232°
2026-05-08 12:01 44.95321 -0.64454 5717 ft 168 kts 233°
2026-05-08 12:01 44.94677 -0.65833 5374 ft 167 kts 232°
2026-05-08 12:01 44.94049 -0.67181 5034 ft 167 kts 232°
2026-05-08 12:01 44.93409 -0.68557 4699 ft 165 kts 232°
2026-05-08 12:02 44.92802 -0.69863 4398 ft 160 kts 232°
2026-05-08 12:02 44.92182 -0.71191 3999 ft 161 kts 232°
2026-05-08 12:02 44.91567 -0.72509 3625 ft 161 kts 231°
2026-05-08 12:02 44.90960 -0.73811 3262 ft 160 kts 231°
2026-05-08 12:03 44.90355 -0.75105 2900 ft 159 kts 231°
2026-05-08 12:03 44.89753 -0.76395 2687 ft 157 kts 231°
2026-05-08 12:03 44.89151 -0.77685 2509 ft 158 kts 231°
2026-05-08 12:03 44.88545 -0.78973 2341 ft 157 kts 231°
2026-05-08 12:04 44.87931 -0.80261 2187 ft 155 kts 229°
2026-05-08 12:04 44.87135 -0.81183 2036 ft 147 kts 191°
2026-05-08 12:04 44.86146 -0.81117 1944 ft 143 kts 158°
2026-05-08 12:04 44.85273 -0.80421 1601 ft 144 kts 133°
2026-05-08 12:05 44.84837 -0.79200 1183 ft 141 kts 108°
2026-05-08 12:05 44.84505 -0.77934 896 ft 141 kts 113°
2026-05-08 12:05 44.84130 -0.76665 708 ft 139 kts 114°
2026-05-08 12:05 44.83747 -0.75403 556 ft 141 kts 114°
2026-05-08 12:06 44.83411 -0.74107 352 ft 143 kts 110°
2026-05-08 12:06 44.83123 -0.72770 189 ft 142 kts 107°
2026-05-08 12:06 44.82888 -0.71649 166 ft 80 kts 104°
2026-05-08 12:06 44.82805 -0.71187 167 ft 31 kts 68°
2026-05-08 12:07 44.82874 -0.71073 166 ft 12 kts 45°
2026-05-08 12:07 44.82926 -0.70997 166 ft 17 kts 46°
2026-05-08 12:07 44.83059 -0.70804 165 ft 36 kts 47°
2026-05-08 12:07 44.83199 -0.70557 164 ft 15 kts 107°
2026-05-08 12:08 44.83240 -0.70433 164 ft 14 kts 51°
2026-05-08 12:08 44.83231 -0.70334 164 ft 6 kts 116°